Theta_e
316 316 316 318 318 319 320 321 322 324 324 324 323 325 325 323 321 311 302 311 314 327 320 306 306 306 310 307 308 306 295 293 295 299 302 303 302 304 307 308 311 314 313 315 325
314 315 315 316 316 317 318 319 321 323 324 324 323 324 323 322 310 302 311 321 326 326 305 301 301 304 304 304 302 300 292 292 299 304 303 304 301 304 305 307 311 314 318 322 325
313 314 314 315 314 315 316 317 320 321 323 323 322 323 322 316 299 297 320 324 322 324 313 310 307 302 302 302 299 299 294 299 303 307 306 305 302 304 304 302 310 312 317 321 321
311 312 313 314 314 314 314 315 317 320 322 322 322 321 320 308 284 310 323 324 326 320 315 310 305 298 299 299 302 294 299 300 303 306 306 305 306 302 303 304 310 319 321 322 322
314 312 312 313 313 313 314 314 314 317 320 321 322 320 310 299 297 306 321 320 319 317 312 306 299 298 297 298 300 295 298 300 302 304 304 306 305 303 303 308 313 321 322 321 322
314 313 312 312 313 313 313 313 313 314 317 319 321 320 306 292 306 307 312 312 314 315 309 308 302 302 299 299 297 299 300 300 301 302 303 303 303 304 306 310 314 319 320 321 322
314 314 313 311 312 312 311 312 312 313 315 318 320 315 304 298 306 308 309 308 311 315 310 309 306 303 303 299 303 301 296 298 299 301 301 303 299 302 305 312 313 316 318 320 321
313 313 311 311 311 311 311 311 311 312 313 317 318 312 300 310 310 307 307 305 308 312 314 315 311 309 306 306 301 297 295 290 297 301 301 298 288 299 307 308 310 312 313 317 319
313 312 311 310 310 311 311 311 311 311 312 316 310 307 299 312 303 306 305 303 304 307 311 316 312 304 303 297 294 293 287 289 293 300 299 297 290 297 304 305 305 307 309 314 317
312 312 311 310 310 310 310 309 309 309 309 311 309 301 302 298 302 304 304 305 301 302 307 306 303 296 296 293 286 288 288 290 289 295 297 295 294 297 300 301 304 304 304 305 309
312 312 311 310 310 310 304 299 295 296 300 296 298 297 299 306 305 301 302 302 300 303 295 299 292 290 294 295 294 294 293 291 292 294 295 294 294 297 299 298 297 298 299 300 301
311 310 310 310 310 310 305 294 295 299 293 300 301 301 304 306 298 298 304 295 294 292 295 291 289 293 296 297 294 291 289 288 291 294 293 289 292 295 294 296 300 300 301 302 303
310 311 310 310 309 305 301 298 304 303 291 294 300 298 300 303 298 294 300 296 292 292 291 286 289 295 293 291 292 290 288 288 289 291 291 286 285 289 293 294 295 298 301 302 303
309 310 310 309 301 299 297 303 305 306 285 288 293 298 301 301 296 300 301 296 292 291 289 287 292 291 289 288 291 288 293 292 289 287 282 288 279 285 289 291 292 293 296 298 298
309 309 309 308 297 295 300 305 305 300 273 290 293 305 301 296 297 296 300 295 288 289 287 285 285 286 287 288 292 288 292 291 289 286 284 283 281 284 287 288 291 293 292 292 293
308 308 309 301 298 301 304 303 301 283 274 286 294 292 292 293 294 297 296 298 294 288 287 285 290 288 288 290 290 291 288 286 285 283 276 283 283 282 286 288 289 288 289 292 293
307 308 306 304 294 302 302 294 281 276 287 284 288 292 291 287 289 292 289 289 284 278 276 283 284 288 290 287 290 288 282 273 271 271 272 280 280 284 287 289 288 290 291 292 291
307 307 303 302 302 301 295 283 274 280 283 288 291 291 288 288 286 290 288 286 286 282 278 275 274 285 288 287 285 284 281 274 268 271 273 279 277 282 287 290 289 291 291 292 293
305 296 297 299 302 298 285 273 275 281 286 285 289 286 286 288 287 288 287 286 288 285 279 277 277 286 288 288 289 284 281 284 278 270 274 277 280 286 288 289 289 289 290 290 293
293 291 292 301 300 292 277 276 279 288 288 288 280 285 281 286 285 286 285 289 289 290 288 283 278 284 287 289 288 286 287 278 277 267 268 275 277 279 283 286 287 288 288 290 292
293 285 291 301 296 286 270 270 281 288 288 285 284 282 284 285 286 285 285 289 291 291 291 286 282 280 286 283 282 284 281 282 281 278 273 272 276 283 284 286 287 287 289 291 292
292 281 292 300 284 284 279 275 286 286 290 287 288 285 284 285 286 286 285 289 294 293 288 288 283 275 279 284 287 286 284 283 275 276 277 277 276 285 285 287 288 288 289 291 292
285 285 294 296 274 278 282 282 283 283 285 286 284 287 287 284 282 287 287 292 293 293 289 290 280 272 277 281 284 283 285 285 283 281 278 274 276 286 285 285 286 287 287 290 289
286 281 287 291 281 274 278 280 279 286 286 287 287 287 285 283 286 285 287 290 292 293 296 294 285 279 275 278 282 280 283 284 283 276 277 278 278 281 284 285 285 286 287 289 289
285 283 284 280 282 283 277 279 277 276 285 287 282 285 283 279 283 283 287 289 291 294 293 290 282 285 286 286 284 282 282 284 283 283 279 280 281 284 285 286 287 288 289 289 289
284 284 286 273 281 283 282 276 276 280 282 281 279 284 286 278 284 281 284 286 287 289 289 289 277 283 279 285 284 282 284 283 282 283 283 283 282 287 288 287 285 287 288 288 289
291 292 288 283 282 282 279 280 279 283 284 285 285 283 283 285 289 288 288 286 287 288 286 285 281 275 274 282 280 273 281 282 282 284 284 280 286 287 287 287 287 288 289 290 290
Wind_Speed
13 13 15 14 16 17 16 15 14 14 13 12 13 10 7 9 12 4 9 9 6 2 5 6 6 6 2 2 3 3 3 4 5 3 5 5 4 2 2 6 3 1 7 6 14
12 14 12 14 15 18 18 17 16 14 13 13 12 10 6 8 4 12 12 14 10 4 3 1 3 7 3 3 2 3 4 7 4 4 4 3 2 3 4 3 3 3 4 12 15
11 13 14 14 13 15 16 18 17 15 13 13 12 9 2 4 5 9 1 11 19 6 3 1 1 1 4 3 4 5 6 6 3 3 1 2 1 2 9 2 6 8 10 13 7
12 12 14 14 15 15 15 16 19 17 15 13 12 8 3 1 8 2 2 2 8 6 5 5 4 4 5 6 7 4 8 5 3 4 1 3 1 2 5 6 6 12 19 15 15
10 11 14 15 15 16 17 18 18 20 17 16 14 9 4 4 10 6 3 1 3 5 6 8 7 6 7 5 4 5 4 3 4 5 3 1 5 5 4 4 4 13 13 15 14
12 11 12 15 15 15 17 18 18 20 20 19 16 12 4 12 8 8 8 4 5 4 5 6 7 3 4 5 6 6 9 4 4 4 3 4 4 3 5 5 9 16 12 10 14
12 12 11 15 14 14 16 17 19 19 22 20 18 11 10 15 4 2 7 4 3 4 3 6 4 4 3 3 7 3 4 2 5 4 4 4 5 8 4 8 11 12 12 11 11
12 10 11 13 13 16 18 19 18 18 20 21 17 14 10 7 15 12 4 3 5 3 3 7 6 3 3 5 3 6 3 4 4 8 5 7 7 7 8 9 10 10 9 11 13
12 10 12 12 14 17 17 20 21 18 20 20 10 11 6 4 8 11 8 4 3 3 4 4 3 4 3 3 3 3 5 5 4 9 4 6 6 4 5 7 9 9 10 10 10
12 12 13 13 14 15 16 17 16 15 11 6 9 6 3 6 4 5 8 7 3 3 2 3 2 4 2 6 14 6 5 3 7 5 6 6 8 4 2 5 8 7 6 7 9
13 13 13 14 14 12 7 5 4 3 6 10 4 12 8 7 2 5 7 7 3 4 7 4 4 12 10 5 4 6 6 8 3 1 4 6 6 10 5 3 5 7 6 6 8
14 15 12 13 13 13 3 4 7 12 5 13 3 6 3 2 3 6 12 9 7 8 5 3 12 5 5 3 3 2 5 4 0 1 3 2 7 8 5 5 6 7 7 7 4
14 14 13 11 11 4 3 9 14 17 2 3 7 5 5 4 7 11 17 7 6 8 8 6 4 10 6 5 8 4 5 4 3 2 3 1 7 6 5 4 5 6 7 6 8
14 14 13 6 3 2 4 5 13 5 3 5 7 6 7 4 7 9 9 8 5 14 7 5 4 8 6 7 7 7 7 5 6 4 3 1 5 6 6 7 5 8 8 8 7
12 13 11 2 3 3 7 8 11 3 4 8 7 6 7 5 2 8 4 3 8 6 8 9 4 5 5 5 7 4 5 7 4 4 2 2 2 8 4 7 9 9 6 5 6
13 13 9 2 1 5 6 5 2 3 4 3 2 5 5 6 4 5 5 0 5 5 4 3 1 1 5 2 5 8 8 9 6 3 1 6 5 5 5 6 5 1 3 6 6
11 12 4 1 3 5 5 4 3 2 4 2 0 4 5 5 5 8 14 7 7 7 2 4 2 3 1 7 4 5 7 4 4 2 6 1 3 8 6 6 3 6 7 6 6
11 10 4 3 3 3 3 4 3 4 2 4 4 9 4 5 3 8 16 10 3 5 5 6 1 5 2 4 8 6 6 7 8 5 4 3 6 8 4 7 2 6 6 6 6
8 3 3 4 3 3 5 4 5 3 5 10 0 2 4 3 2 4 6 9 5 6 7 5 3 1 1 1 6 5 4 4 7 3 4 4 6 8 3 6 5 6 6 5 4
1 2 4 2 4 4 6 2 2 2 1 3 7 5 3 3 4 4 8 4 3 7 2 5 5 2 1 1 2 4 5 3 3 5 2 3 4 5 4 5 4 6 5 5 4
3 3 4 3 4 5 3 6 4 4 4 3 3 4 4 4 1 1 7 2 10 3 3 4 4 2 4 5 7 3 1 2 4 4 6 4 6 6 4 8 8 5 5 6 6
2 1 3 2 2 1 3 5 4 3 2 1 2 1 2 4 2 2 7 7 12 3 3 1 5 3 4 4 4 3 6 5 5 4 1 2 5 5 3 8 7 5 6 6 6
2 2 3 2 3 4 2 3 3 2 3 1 1 0 2 2 3 3 5 5 9 12 13 7 0 4 5 6 5 4 4 4 4 2 4 6 5 3 2 4 3 5 2 1 2
2 2 1 3 3 6 5 2 5 3 3 2 2 1 3 5 2 5 3 3 4 3 4 7 3 7 7 4 6 6 5 4 5 3 4 5 3 3 3 5 3 3 4 6 6
3 4 4 5 6 8 4 6 5 4 3 2 4 3 1 3 3 3 1 4 3 1 4 5 4 2 5 2 3 4 5 8 8 7 6 4 6 10 7 6 5 5 4 6 4
6 5 3 3 4 14 11 9 8 3 8 3 4 3 4 3 2 2 3 4 0 2 3 3 2 4 3 5 5 2 2 2 2 2 7 5 8 6 7 4 2 1 4 2 3
3 2 3 6 5 11 10 11 11 8 6 5 8 4 4 6 10 6 5 2 4 3 1 2 4 3 3 3 6 4 14 7 5 5 6 7 12 5 5 6 4 4 4 6 7
Wind_Direction
332 323 326 323 323 322 315 307 306 300 280 272 281 284 294 326 327 299 253 239 217 288 321 318 348 330 300 277 263 115 59 242 235 187 259 321 177 146 138 116 76 53 152 198 144
336 329 322 315 319 317 312 307 301 302 284 268 270 276 305 341 302 272 243 244 241 236 275 330 335 338 289 249 277 129 155 228 231 174 224 259 213 180 113 113 46 40 15 133 137
331 325 319 314 311 314 315 307 302 297 290 263 263 263 298 356 325 249 293 248 229 186 204 146 323 236 251 204 211 189 211 207 235 242 245 279 272 274 126 240 195 179 151 148 149
319 318 316 305 304 300 310 316 308 295 291 267 248 241 162 121 253 328 287 9 149 177 197 177 189 204 209 212 209 189 247 238 188 203 252 272 299 257 184 211 173 167 160 156 172
308 305 311 308 304 303 298 300 308 306 294 283 246 208 142 211 243 276 249 237 158 166 201 196 178 182 185 213 217 205 239 220 195 195 231 306 263 202 235 202 136 138 160 169 178
304 297 302 307 303 303 307 303 302 303 298 283 261 201 183 238 247 244 216 205 235 199 208 202 205 211 224 225 182 218 208 219 240 224 235 201 243 215 228 145 134 149 172 175 184
303 298 301 311 300 299 300 300 301 300 299 284 268 208 202 226 238 277 185 204 237 205 230 220 221 228 189 238 214 212 172 228 220 206 244 175 261 231 218 148 152 168 173 179 195
306 298 306 310 299 298 295 298 299 290 296 287 271 222 243 198 234 265 256 259 257 238 240 269 196 209 221 297 129 153 127 182 229 170 238 157 253 252 203 159 174 175 183 186 197
306 294 301 304 306 307 300 299 295 275 290 281 267 225 246 249 193 226 208 226 201 265 264 274 148 202 221 195 127 223 187 195 276 200 150 172 252 250 189 193 184 188 191 196 201
317 303 290 300 302 312 316 311 282 278 275 245 251 237 147 261 193 179 186 170 191 190 232 204 183 187 206 174 201 161 145 193 210 216 182 192 253 288 73 186 224 202 211 216 210
331 315 297 296 298 323 349 341 326 244 189 203 182 226 241 264 194 173 150 147 219 155 190 216 168 207 193 167 164 161 184 198 225 183 169 208 223 258 273 274 245 240 207 220 245
330 331 310 300 300 309 287 302 253 306 254 215 215 287 230 21 272 195 138 157 166 190 166 180 231 188 185 178 201 204 179 177 10 331 166 179 245 255 269 256 213 226 238 216 216
323 326 320 303 315 301 240 315 303 292 249 201 207 204 243 68 238 197 168 153 144 167 197 188 239 171 174 181 188 209 191 184 171 117 53 93 310 279 257 225 246 236 228 238 223
323 325 325 322 310 279 249 258 274 268 241 190 196 213 172 149 254 175 171 139 173 189 142 262 252 170 153 204 161 211 184 165 141 103 203 113 271 295 273 265 242 244 220 234 243
330 328 327 279 265 286 271 312 338 17 252 157 155 160 154 212 342 177 148 121 169 165 138 219 191 146 184 190 162 192 149 142 117 104 117 248 111 269 292 279 257 250 257 212 226
337 329 324 350 292 256 291 313 33 176 270 212 141 145 125 208 322 138 137 102 159 116 41 178 252 128 179 87 139 138 86 48 53 75 319 204 168 256 218 218 252 105 61 127 115
336 324 291 141 262 304 321 350 12 341 334 329 146 196 135 157 191 177 177 186 161 113 173 352 356 310 143 83 32 96 90 32 15 10 219 5 159 247 242 249 286 160 124 80 63
328 325 286 221 287 340 355 23 45 281 336 325 239 158 200 145 237 182 162 178 212 99 122 138 285 185 187 159 173 163 149 153 179 189 208 114 218 254 260 221 87 113 104 100 91
341 331 309 264 194 57 59 33 202 320 347 332 229 150 155 162 115 125 181 191 175 170 133 128 228 333 162 121 146 195 186 163 105 19 83 205 271 303 150 84 94 110 98 91 89
60 357 262 223 124 61 70 258 271 277 119 297 359 31 326 155 175 157 153 211 266 188 140 180 118 357 117 112 46 141 163 81 356 119 222 257 276 237 132 160 141 119 126 114 99
69 18 268 159 69 53 146 224 269 255 251 48 3 312 351 341 143 219 159 207 218 187 153 121 99 265 122 204 170 123 221 81 116 140 156 142 253 235 190 167 150 154 143 125 121
103 1 297 336 86 128 199 203 243 300 300 255 202 210 103 330 302 215 192 192 207 116 172 226 114 147 182 262 210 171 188 147 134 222 234 150 256 330 132 150 142 152 147 156 164
161 246 348 95 182 187 175 277 287 256 266 346 305 339 47 41 325 267 200 259 183 187 173 180 136 78 12 354 349 215 194 145 122 78 192 129 241 339 58 88 62 128 162 267 241
121 251 259 205 141 147 148 223 279 279 288 300 297 247 151 216 185 290 315 359 341 199 107 80 151 161 178 195 149 187 189 153 123 121 175 218 172 157 157 138 148 156 208 239 254
183 226 190 186 220 209 161 187 206 225 241 222 352 254 158 330 151 286 231 13 354 192 107 128 149 106 111 347 82 93 155 168 192 189 161 199 187 214 188 175 192 191 205 227 235
172 173 181 177 172 190 203 202 198 197 166 225 182 248 215 200 236 193 351 20 46 312 176 180 135 126 177 125 86 109 197 146 299 173 236 156 256 238 201 213 146 223 208 219 289
189 202 152 185 161 179 212 197 200 153 227 189 200 164 184 218 181 161 138 148 288 206 241 120 126 93 190 152 102 352 226 196 201 206 177 206 236 170 236 279 295 308 277 278 280